Location: *
(43.9905°S, 176.4941°W)
Time: 00:16:37
(UTC+00:00)

Cosmos 1184 Rocket - Pass Details

Date: 08 December 2019
Orbit: 411 x 424 km, 81.2° (Epoch: 17 January)

Event Time Altitude Azimuth Distance (km) Brightness Sun altitude
Exits shadow 08:17:27 13° 36° (NE) 1,385 4.7 -9.1°
Maximum altitude 08:19:47 25° 88° (E) 936 4.1 -9.4°
Drops below altitude 10° 08:22:36 10° 144° (SE) 1,554 5.7 -9.8°
Sets 08:24:54 0° 157° (SSE) 2,430 6.9 -10.0°
